Find OneWeb SL0155

NORAD ID: 48057 Int'l Des: 2021-025 Owner: ONEWEBN Country: UK Constellation: oneweb operational
別名: ONEWEB-0155 spacetrack, celestrak
LEOCIRCULARPOLARONEWEB_TYPE

現在のビュー

3D地球を読み込み中...

About OneWeb SL0155

OneWeb SL0155 (NORAD 48057) is a oneweb constellation satellite launched Mar 25, 2021 by ONEWEBN of UK. It operates in LEO, CIRCULAR, POLAR, ONEWEB_TYPE orbit with a mass of 148.00 kg.

次回通過

Passes for default location (London). Set your location on the main map for personalized predictions.

高度履歴

Loading altitude history...

軌道要素

1 48057U 21025R 26265.11084910 .00000107 00000-0 25897-3 0 9991
2 48057 87.8920 300.9385 0001811 97.3045 262.8290 13.13471080266402
Epoch: Sep 22, 2026 • Age: 15 hours

現在のステータス

高度 1211.5 km
遠地点 / 近地点 N/A
速度 7.25 km/s
衛星直下点 16.73°N, 153.16°W
打ち上げ日 Mar 25, 2021
運用期間 5.4 years
タイプ internet

技術仕様

分類 Payload
質量 148.00 kg
乾燥質量 140.00 kg
長さ 1.30 m
直径 1.00 m
スパン 5.00 m
形状 ? Trapezoid+2 pan
製造者 ONEWUS
バスタイプ ARROW
フェーズステータス In Orbit
所有者/国 ONEWEBN/UK

Most Searched